User: anonymous   Login
Location: Bailleul
(50.3375°N, 2.8513°E)
Time: 23:45:11
(UTC+00:00)
Language:

Cosmos 1745 Rocket - Orbit

View from above orbital plane
View from above orbital plane
View from above satellite
View from above satellite

Ground track
Ground track

The orbit data is extracted from the following two-line orbital elements,

1 16728U 86037B   21172.69957646  .00000093  00000-0  78540-4 0  9993
2 16728  82.9546 330.7529 0032139  64.8372 306.9184 13.76749245762180
Epoch (UTC): 21 June 2021 16:47:23
Eccentricity: 0.0032139
inclination: 82.9546°
perigee height: 952 km
apogee height: 999 km
right ascension of ascending node: 330.7529°
argument of perigee: 64.8372°
revolutions per day: 13.76749245
mean anomaly at epoch: 306.9184°
orbit number at epoch: 76218

The dashed part of the orbit path shows where the satellite is in the earth's shadow,  

DLR